GFSNE_700_spd_003.txt.gz
Wind_Speed
38 35 35 33 34 32 30 36 43 42 40 47 42 31 31 22 26 37 44 43 42 42 41 39 39 41 42 38 36 35 35 38 43 43 42 42 44 46
39 37 31 30 30 27 29 31 30 34 36 36 38 42 36 23 17 26 35 40 41 40 41 40 41 43 44 45 43 41 40 39 40 44 45 44 43 44
32 30 31 30 31 29 27 26 26 24 28 26 24 23 28 32 34 33 31 40 40 44 45 44 43 44 44 44 45 46 45 44 43 44 46 47 46 45
32 31 33 31 33 33 30 30 29 27 28 29 28 28 28 28 28 29 29 29 30 29 35 45 47 44 43 43 43 45 47 47 45 44 45 49 49 48
35 36 39 39 38 35 34 32 29 27 28 28 29 27 28 28 30 30 32 32 31 29 35 39 42 43 41 39 41 44 45 46 48 46 45 48 51 50
32 34 33 32 32 33 34 33 31 33 32 34 34 33 32 30 31 32 33 32 33 28 30 33 37 42 44 42 43 46 48 48 49 49 47 47 49 51
35 32 31 33 36 35 35 37 36 38 38 38 38 34 27 27 27 27 30 30 30 30 32 34 35 36 40 41 42 43 46 48 49 49 49 49 49 49
36 36 33 33 35 37 34 34 35 37 38 39 39 40 37 34 36 37 37 37 38 37 38 40 39 37 39 38 29 38 45 47 49 51 52 52 52 51
37 36 34 32 33 35 35 34 35 33 34 35 38 37 38 37 38 38 38 39 39 36 35 36 28 29 34 39 42 44 46 48 44 46 49 52 54 53
35 33 33 33 32 33 32 32 32 32 32 32 32 32 34 34 35 36 37 38 38 37 35 36 33 35 31 33 37 39 44 46 46 41 42 46 51 55
31 30 29 29 29 29 32 32 31 30 29 29 29 30 31 31 31 33 35 36 36 33 30 33 33 34 32 35 34 33 37 42 45 42 41 43 46 51
30 27 25 25 26 26 28 28 29 27 27 27 27 28 29 28 29 30 28 29 29 29 25 27 27 28 30 31 28 29 32 35 37 39 41 43 43 47
27 22 17 21 21 21 22 24 26 24 24 24 25 24 25 26 25 24 24 25 26 27 23 24 25 24 23 25 25 19 19 24 31 33 36 40 43 44
23 20 19 20 21 20 20 20 20 20 17 15 14 13 12 13 16 20 22 22 22 25 23 24 26 25 23 23 23 17 19 18 18 24 31 34 39 42
21 20 18 17 17 16 17 16 13 11 10 9 8 7 6 6 7 10 14 18 20 21 20 19 23 23 25 26 24 20 18 18 20 24 25 29 34 36
17 15 14 11 11 11 9 7 8 8 8 8 8 7 6 5 6 8 10 11 13 14 15 15 17 21 26 28 25 22 20 20 17 20 23 25 27 30
14 11 8 10 11 11 6 3 5 7 8 8 8 8 6 5 5 5 7 8 9 9 11 13 14 15 18 22 25 22 21 17 17 20 20 19 22 27
12 11 10 10 9 9 7 2 1 3 5 7 8 7 6 5 5 4 4 4 4 5 8 8 11 10 9 10 13 16 20 20 17 16 18 20 22 21
13 12 10 8 7 7 6 7 8 7 2 4 6 6 7 6 4 4 4 2 3 3 5 3 3 7 7 5 6 8 9 11 13 16 16 18 22 22
12 11 8 8 11 9 8 8 8 9 10 7 4 7 6 5 4 4 5 4 4 3 4 6 5 4 7 8 12 13 14 13 13 13 14 16 17 16
12 10 7 9 10 9 9 10 9 9 10 10 7 2 5 5 3 4 6 6 7 8 7 6 6 7 6 7 9 10 8 11 11 12 13 14 15 15
10 9 6 7 7 8 9 9 9 10 10 9 9 7 1 4 6 6 7 8 9 11 12 11 11 12 12 12 14 15 14 14 15 14 14 12 14 15
10 8 6 5 7 8 8 8 8 8 7 7 8 7 6 4 3 5 7 8 10 11 11 11 12 12 13 14 15 16 15 15 15 14 12 13 15 14

GFSNE_700_spd_006.txt.gz
Wind_Speed
37 37 37 36 35 29 30 29 27 30 27 30 38 39 50 35 31 30 32 34 30 36 36 40 41 37 39 38 40 41 40 40 41 43 41 41 41 42
34 34 30 28 25 24 25 28 26 26 31 27 24 25 29 25 24 27 28 27 33 34 31 29 32 35 36 39 41 43 42 40 37 39 39 40 41 41
28 28 29 29 29 28 28 30 29 27 33 33 29 24 23 18 17 21 25 27 29 34 34 37 35 36 36 37 39 41 45 45 42 40 39 39 39 41
35 26 29 32 35 36 35 32 31 36 33 33 32 32 29 29 27 23 22 23 26 28 35 33 35 37 39 41 41 40 41 43 45 44 42 42 43 43
34 36 37 33 36 34 35 40 42 37 34 35 36 34 33 29 33 34 31 30 30 32 30 31 37 38 38 34 38 41 43 45 47 48 47 46 45 46
36 35 34 35 33 33 34 33 33 35 35 37 38 36 32 30 29 30 34 36 37 38 37 38 38 38 39 39 37 39 41 45 48 50 51 50 48 48
39 38 36 34 34 39 39 37 43 39 38 39 38 37 35 31 27 24 25 25 29 30 35 38 40 40 41 39 38 36 39 44 45 47 47 48 48 48
43 40 38 36 34 32 35 38 40 40 35 34 35 36 35 34 34 34 36 37 37 35 39 37 36 37 38 39 37 34 35 37 45 48 50 52 53 53
41 39 36 34 34 33 35 38 37 36 32 28 30 31 33 32 33 35 36 40 43 43 42 44 41 38 39 41 43 44 41 41 39 39 45 49 51 54
36 33 31 29 29 31 33 34 33 32 32 32 32 28 31 30 33 34 37 40 41 40 38 39 33 33 33 34 35 37 41 42 43 43 41 40 44 47
33 30 27 26 25 26 29 30 30 29 30 31 30 29 29 29 30 32 33 34 35 33 31 33 30 31 31 31 32 34 35 36 36 39 41 40 38 43
29 24 21 22 21 20 22 23 25 25 26 26 25 26 26 26 26 28 30 31 30 30 24 28 28 26 28 27 27 27 29 30 32 34 35 37 38 41
29 25 20 18 21 20 21 22 23 23 22 23 22 21 22 23 23 24 26 26 24 24 17 22 25 23 25 24 19 18 20 20 22 25 29 31 32 36
28 24 21 20 19 20 20 20 20 19 18 17 15 13 12 12 11 12 15 18 20 21 17 19 25 24 25 28 23 16 16 16 20 22 20 22 25 29
24 21 20 17 15 15 15 16 14 12 10 8 7 7 6 5 4 4 6 10 14 16 17 20 23 21 23 24 20 18 21 18 19 16 17 21 22 23
20 18 15 13 13 13 11 7 4 5 5 7 7 7 6 5 5 7 7 10 13 11 12 13 15 17 17 20 24 25 22 20 20 17 14 17 20 22
19 16 14 13 12 11 11 6 3 4 6 7 8 8 8 6 5 6 7 7 9 8 6 7 9 11 12 15 21 23 22 24 22 20 19 19 19 16
17 16 15 14 13 13 13 12 8 5 5 7 8 9 8 7 5 6 5 2 4 3 3 7 7 9 9 6 5 5 8 14 20 21 19 18 15 18
16 15 13 10 13 14 12 10 9 8 5 5 7 8 7 8 6 5 5 3 3 2 1 5 6 6 5 2 9 12 7 6 6 17 22 21 19 16
16 14 11 10 12 11 10 10 8 8 8 6 3 6 7 7 6 5 5 5 5 4 6 5 6 7 8 10 12 11 10 9 10 11 13 14 17 19
15 13 7 8 10 11 11 11 10 9 8 9 7 2 7 7 5 4 5 7 7 8 8 8 9 9 9 9 10 9 8 9 10 10 10 11 14 15
15 13 8 5 9 10 10 10 10 10 9 9 8 7 2 4 6 7 8 9 10 10 11 11 12 12 13 14 15 16 12 14 14 13 12 12 13 14
16 13 11 9 8 9 10 9 9 9 8 8 8 7 6 5 4 5 6 7 9 10 10 12 13 13 13 13 15 17 15 15 15 13 13 13 12 12

GFSNE_700_spd_009.txt.gz
Wind_Speed
42 39 37 33 31 32 30 27 25 30 31 27 23 21 22 26 27 39 31 33 42 49 49 43 40 42 40 39 38 39 40 43 44 44 44 44 45 45
32 33 33 30 28 28 24 25 28 31 38 32 28 25 22 21 18 25 24 27 26 32 36 34 35 35 37 37 39 43 46 47 47 46 44 43 44 44
32 31 32 33 33 33 35 34 33 28 33 39 35 33 30 24 21 19 26 27 26 26 28 28 29 31 39 43 40 43 46 47 48 48 45 43 42 43
32 32 32 33 35 36 37 39 39 40 40 38 38 38 39 31 28 25 24 25 16 17 21 31 37 39 37 36 38 42 45 47 48 50 48 45 43 42
36 38 39 39 38 37 38 36 38 36 36 40 47 46 36 31 28 28 33 32 26 21 22 27 32 34 35 34 36 39 43 46 48 49 51 50 48 46
41 41 41 40 40 39 37 38 37 39 40 37 35 37 39 36 34 33 30 34 38 36 33 34 35 37 38 39 38 37 40 46 49 50 51 52 53 51
46 45 44 42 40 37 37 37 37 38 40 43 43 40 37 34 31 31 31 31 32 38 40 40 41 42 40 41 41 39 36 40 46 50 52 53 54 55
45 43 40 37 34 33 34 36 38 39 39 39 38 34 30 29 30 32 32 31 30 31 34 35 40 43 43 44 42 40 38 37 39 43 47 51 53 54
41 40 37 33 32 31 30 31 33 36 38 39 37 32 26 24 28 30 32 35 36 33 35 36 34 34 33 35 37 39 39 38 36 36 38 45 50 52
37 34 32 30 28 28 28 29 28 31 34 36 36 31 30 25 28 29 31 34 36 35 35 40 36 39 38 38 40 42 44 42 40 39 41 42 43 48
31 28 27 25 23 22 24 25 24 23 26 28 29 28 27 25 26 28 28 30 30 28 30 36 32 35 35 37 38 39 41 42 41 41 40 40 44 47
28 27 24 22 21 20 19 20 21 20 22 22 22 24 25 23 23 24 24 25 26 26 22 31 29 30 32 30 31 33 35 37 38 40 40 38 37 41
31 29 24 20 18 19 19 19 19 18 18 18 19 19 19 19 18 20 22 24 25 24 16 22 22 22 25 24 24 25 27 29 32 35 35 34 35 37
30 26 22 18 16 15 15 15 14 13 12 12 12 11 11 11 11 12 11 13 16 16 15 19 21 19 20 23 24 21 23 24 25 27 26 24 26 29
25 24 21 18 16 16 16 14 10 7 7 5 5 5 5 5 5 6 5 5 6 7 9 14 18 18 20 21 21 20 24 26 23 22 21 21 22 24
22 20 19 18 16 15 14 9 6 3 2 2 3 4 4 4 3 3 4 6 7 9 10 9 13 15 16 15 17 16 21 25 25 25 23 20 19 19
21 20 18 17 14 13 13 12 8 4 3 3 4 4 5 5 4 4 4 5 5 5 7 7 7 7 6 8 11 12 15 23 24 25 27 25 21 19
20 18 17 14 16 18 17 16 15 12 6 5 5 6 7 6 6 6 4 2 2 3 2 2 4 4 4 3 1 1 2 8 17 23 25 25 23 21
19 17 14 12 15 15 16 15 13 12 11 5 5 6 8 9 8 7 5 4 3 4 3 1 2 2 2 4 4 5 4 3 2 8 17 24 23 21
19 16 11 8 11 14 14 14 14 13 12 12 5 4 6 5 6 6 6 7 7 6 3 5 6 6 5 6 8 7 7 8 8 9 11 14 15 17
20 16 12 8 9 12 13 13 12 11 10 10 10 4 3 6 6 6 6 7 7 8 8 9 9 9 10 11 11 10 9 9 9 9 10 12 14 15
21 18 16 11 9 9 11 12 11 11 10 9 8 7 5 3 5 7 8 8 8 10 11 11 10 11 12 13 15 14 13 14 15 14 14 14 16 17
21 19 17 15 13 11 9 10 11 10 9 8 7 6 5 4 4 3 4 4 4 6 7 9 10 11 12 13 13 15 12 14 15 15 15 14 14 15

GFSNE_700_spd_012.txt.gz
Wind_Speed
36 35 33 31 28 31 33 34 32 26 32 30 30 26 25 28 27 25 27 35 35 37 56 53 46 55 66 62 56 51 49 47 43 41 41 39 39 41
28 28 29 30 31 33 32 32 33 39 32 32 34 35 32 28 28 26 25 24 33 30 39 48 58 44 50 57 60 55 50 47 45 43 43 42 40 40
29 30 31 32 31 31 32 34 39 39 41 41 36 32 36 33 30 25 27 26 25 27 30 38 43 57 55 50 56 52 50 48 46 44 44 44 44 41
33 34 35 37 39 39 40 39 39 41 45 47 45 44 37 33 36 35 28 31 30 17 24 29 33 33 44 32 43 45 44 45 48 49 50 50 48 45
38 41 43 44 44 43 42 44 43 41 41 42 45 43 39 34 42 43 37 32 35 34 18 19 29 28 28 30 30 32 40 45 48 50 54 54 50 48
42 45 46 45 44 42 41 42 42 42 41 41 41 42 40 34 32 31 35 32 32 35 33 24 23 25 27 29 33 36 39 41 44 48 52 54 55 53
44 44 44 44 43 41 40 37 37 37 38 38 39 40 41 38 37 34 35 36 35 36 36 37 32 32 34 34 36 37 37 38 37 40 45 49 53 55
43 44 43 42 40 37 34 32 34 35 34 36 37 38 38 33 30 31 32 34 33 33 36 36 40 40 38 38 40 41 41 40 38 38 41 45 49 54
44 42 39 35 32 31 28 27 28 30 33 34 37 37 35 31 30 27 28 32 34 33 36 37 39 41 44 47 45 44 45 46 44 42 43 44 46 49
38 34 33 32 30 28 27 24 23 24 27 29 32 34 32 30 28 27 28 30 31 30 33 36 36 39 38 39 39 40 41 41 42 41 43 45 47 50
31 30 32 30 26 23 23 21 20 18 20 22 25 27 26 25 24 25 26 29 29 26 30 35 34 39 42 43 44 44 43 43 43 44 42 45 47 48
28 29 28 25 22 20 21 21 18 17 18 19 21 21 22 22 22 22 22 25 25 24 24 32 28 32 34 34 36 38 41 42 42 41 40 40 43 46
30 29 27 23 20 18 18 17 15 13 13 14 15 17 17 17 17 19 19 20 21 20 19 26 25 28 29 27 28 32 35 36 38 39 39 39 39 40
28 27 25 23 21 19 18 17 15 12 9 8 8 9 10 12 12 13 14 14 14 14 18 23 22 23 23 23 22 25 29 30 33 33 34 35 37 37
26 26 25 22 19 17 17 16 12 6 5 4 3 4 5 5 5 6 6 6 5 5 9 14 17 19 20 20 19 20 24 27 29 29 30 31 32 33
23 24 23 20 18 17 17 16 10 6 3 1 2 3 3 4 3 3 3 3 4 5 7 9 11 13 15 15 16 17 20 25 27 30 30 28 26 27
24 23 20 17 16 18 16 15 14 10 5 2 1 2 4 5 4 4 3 2 3 6 6 5 6 6 7 9 9 12 16 21 23 27 30 28 27 26
23 21 18 14 16 18 18 17 15 14 11 2 2 4 6 6 6 5 3 3 2 2 2 3 2 4 7 8 6 5 5 8 16 21 25 27 25 26
24 21 18 14 14 16 18 17 16 14 13 10 2 5 6 7 7 6 5 6 6 3 3 3 4 2 2 7 6 4 3 6 4 6 10 16 20 24
24 20 18 16 14 15 16 15 15 14 13 11 6 2 4 5 7 7 7 7 8 6 5 6 7 6 7 9 10 9 8 9 10 9 10 9 10 17
22 22 19 17 15 14 14 15 14 13 12 11 9 5 1 3 5 6 6 8 9 9 9 10 10 11 11 11 11 10 9 9 10 10 10 11 11 13
20 20 20 19 17 15 15 14 14 14 12 10 8 7 5 3 1 5 7 8 10 10 11 11 12 12 12 14 14 13 13 15 16 16 16 16 16 16
19 19 19 19 18 17 15 14 14 12 12 10 9 7 5 4 3 3 3 3 4 5 7 7 8 10 12 12 13 13 13 13 16 18 18 18 18 18

GFSNE_700_spd_015.txt.gz
Wind_Speed
36 31 32 33 33 33 34 36 40 39 37 35 35 30 28 26 27 28 26 25 25 24 30 39 51 49 51 49 55 54 57 56 50 47 46 43 40 41
31 28 30 35 36 35 35 34 36 40 46 44 40 37 32 32 29 28 30 29 27 24 24 29 39 53 50 46 51 63 63 60 56 52 51 47 43 40
32 34 35 36 37 38 40 41 41 41 45 45 43 44 44 42 33 31 33 33 34 28 26 30 36 39 48 48 42 44 64 64 60 56 54 52 46 43
34 36 38 41 43 45 45 45 44 44 45 46 42 42 44 44 43 39 34 35 34 36 30 25 33 38 37 51 47 48 43 58 60 59 57 56 51 46
36 39 43 45 45 45 44 43 42 41 41 43 43 41 42 42 39 36 38 42 39 38 39 33 18 26 37 34 46 51 51 45 53 59 58 57 52 47
40 44 46 46 47 47 44 41 39 37 36 38 38 38 39 39 39 36 34 34 39 40 40 40 31 15 27 27 30 45 53 48 48 47 51 52 50 47
42 44 45 47 46 42 40 37 35 33 33 34 33 32 34 36 35 35 34 34 34 35 36 37 36 29 18 24 27 27 25 27 29 33 33 40 45 47
43 44 45 41 37 36 35 34 32 31 31 32 29 30 30 30 31 31 31 30 32 33 38 37 34 35 34 26 23 25 24 24 25 27 30 33 37 45
44 43 38 36 36 36 33 32 30 27 27 28 28 28 29 30 29 29 29 30 30 28 33 35 35 34 36 37 34 32 30 31 31 32 34 37 41 42
42 36 34 34 32 31 29 27 24 21 22 23 24 24 24 27 28 26 28 29 29 25 28 32 33 35 36 38 39 37 38 37 37 39 41 42 43 44
36 30 31 30 29 27 26 24 22 19 22 21 21 20 20 21 21 23 23 25 26 23 26 30 30 34 36 38 38 39 39 43 41 42 44 44 43 44
30 27 28 28 28 26 24 21 19 17 17 18 19 19 19 18 17 17 19 20 21 21 23 28 25 33 36 38 38 38 38 40 40 42 44 42 41 44
30 26 27 27 26 24 22 20 19 17 14 13 12 13 14 14 14 15 17 18 19 19 21 27 27 31 32 31 34 37 40 41 43 43 43 42 40 42
29 26 26 26 24 21 22 21 17 13 9 8 7 6 7 9 9 10 12 13 13 14 21 22 22 23 23 25 26 30 34 36 38 37 38 39 39 38
28 25 24 24 20 20 21 20 16 11 7 5 5 4 3 2 3 4 5 5 6 7 10 14 17 21 23 21 20 23 26 29 31 31 32 31 32 33
27 24 22 20 21 22 20 17 16 12 7 4 2 1 1 2 2 2 2 3 4 5 7 7 8 12 14 15 17 18 20 23 26 28 29 30 30 30
28 24 21 17 17 20 21 19 16 14 8 3 1 1 2 2 2 2 1 2 3 4 5 7 7 7 9 11 12 13 17 22 25 27 30 30 30 30
27 25 21 18 17 17 19 19 18 16 13 5 2 3 3 3 3 3 3 3 3 1 3 5 4 5 6 8 9 9 10 11 14 17 20 22 22 27
25 25 23 20 17 16 17 19 18 17 15 13 3 4 4 5 5 5 5 5 4 2 3 5 4 3 2 5 6 7 4 6 7 5 7 11 16 23
23 22 22 22 19 17 16 15 17 18 16 15 12 5 3 5 6 7 7 7 6 6 6 7 6 6 6 7 9 10 10 10 10 9 8 7 6 10
22 21 21 21 21 20 18 15 13 13 14 13 11 9 5 4 6 6 6 7 8 8 9 10 10 10 9 9 10 11 11 11 10 10 10 9 8 8
22 21 20 21 21 20 19 18 15 13 12 13 11 9 7 5 3 5 7 8 10 10 10 11 12 12 12 12 14 15 15 15 15 15 15 15 14 15
22 23 22 20 20 21 20 19 17 15 12 11 11 11 9 8 6 5 5 5 5 6 7 8 10 11 11 12 13 14 14 15 15 16 18 18 18 18

GFSNE_700_spd_018.txt.gz
Wind_Speed
37 38 33 31 32 34 36 36 38 45 45 40 39 38 39 34 32 31 33 34 33 31 29 27 31 39 48 57 59 55 55 36 41 45 49 48 46 44
39 37 35 37 36 36 37 38 39 43 51 46 44 40 38 38 39 36 30 32 33 32 29 27 26 30 39 42 48 54 52 50 40 41 46 50 48 44
38 38 36 35 36 38 40 42 43 43 47 47 45 42 41 41 40 37 40 34 35 36 32 29 28 29 31 37 44 39 51 46 50 56 56 50 51 44
36 36 36 38 40 43 44 43 44 44 46 46 42 39 39 38 41 40 36 36 38 36 37 33 30 30 32 34 36 39 50 53 44 46 51 49 52 48
36 37 39 42 45 44 45 45 42 40 39 40 38 36 36 34 37 38 37 34 34 37 42 37 35 33 30 30 36 39 43 49 42 38 44 50 56 54
36 38 41 44 46 45 42 39 38 37 36 35 32 33 32 29 32 34 34 33 32 33 35 42 41 39 31 30 35 40 49 49 46 42 38 41 54 52
37 39 42 44 42 38 38 38 39 38 35 33 30 29 28 26 27 19 30 29 29 29 31 36 43 44 36 32 21 34 37 46 50 44 39 42 48 51
38 40 43 40 35 35 35 35 34 33 30 28 27 26 23 25 23 23 25 27 26 26 30 33 34 37 36 32 21 27 28 35 28 29 39 44 47 46
38 42 42 35 34 34 33 31 29 26 25 25 26 25 22 20 23 19 25 25 24 25 28 25 29 31 31 29 33 24 22 24 24 23 23 35 39 38
38 41 38 32 32 32 32 29 26 24 22 24 25 23 22 18 20 25 30 27 24 23 26 23 24 26 31 31 31 33 29 26 25 24 23 24 27 26
37 40 36 31 31 30 29 28 25 22 20 19 20 21 19 17 17 17 19 21 21 21 23 20 20 23 29 31 31 30 31 32 32 30 29 28 29 28
36 36 32 29 29 27 26 26 26 22 20 17 16 17 15 14 16 17 16 19 17 17 17 16 19 23 26 29 31 31 31 32 31 32 33 35 32 33
35 34 29 26 25 22 24 25 25 22 17 11 10 10 10 9 11 14 14 15 16 15 14 19 21 22 23 24 27 29 31 33 33 33 34 33 34 36
33 33 29 24 21 21 24 24 23 20 15 10 8 9 8 7 5 7 9 10 11 11 13 15 18 20 21 22 24 26 29 31 32 33 34 34 35 36
30 31 28 23 20 21 23 23 22 20 14 10 7 6 6 4 3 1 1 4 6 6 4 7 13 18 19 19 19 21 24 26 28 29 29 30 30 31
27 27 28 25 22 22 22 23 21 19 14 8 6 4 4 4 4 5 5 4 4 2 4 6 6 10 15 16 17 17 18 19 20 23 25 26 27 28
24 25 26 24 21 20 20 21 21 19 17 10 5 3 1 2 2 3 4 3 1 4 4 6 5 6 8 12 14 15 17 18 20 21 21 22 23 24
23 23 24 24 23 20 18 18 19 19 17 15 6 3 2 2 1 2 3 2 2 1 1 4 5 5 5 6 8 10 12 13 14 14 16 17 19 22
24 23 23 23 22 22 20 18 17 17 17 15 12 5 5 5 4 4 5 4 3 2 2 5 4 4 5 7 8 7 6 7 7 6 5 6 12 19
24 24 23 22 21 22 21 19 18 16 16 16 15 12 6 5 6 6 7 7 5 5 5 6 5 5 4 4 7 8 7 6 7 7 7 6 5 7
21 23 23 23 21 21 21 21 19 17 15 13 14 13 11 8 6 6 7 7 7 7 7 8 8 8 8 8 8 9 10 9 8 7 7 7 7 7
20 21 23 24 24 22 21 20 19 19 17 16 13 12 11 10 9 7 7 8 8 8 9 11 12 12 11 11 12 14 14 14 13 12 12 11 11 11
19 20 21 23 24 25 22 20 19 18 17 15 14 12 10 10 9 8 7 7 6 6 7 10 12 13 14 14 14 14 14 13 14 14 14 15 16 16

GFSNE_700_spd_021.txt.gz
Wind_Speed
30 34 36 35 36 37 37 39 41 46 47 42 43 41 40 37 35 35 40 38 36 36 34 32 30 31 34 41 49 55 58 59 55 48 52 47 47 48
32 37 37 37 36 35 36 38 41 45 52 46 45 43 41 41 38 37 37 38 41 39 38 35 32 29 29 30 38 45 50 55 44 49 45 46 47 46
37 39 38 37 36 36 38 41 44 45 49 46 45 43 40 41 40 37 35 37 38 42 39 36 34 31 28 27 26 33 40 51 53 40 44 44 47 46
38 38 38 37 37 39 42 44 46 44 44 42 38 37 37 35 37 36 34 34 37 37 41 40 38 36 31 28 26 24 30 28 40 48 45 46 43 47
37 38 37 38 38 41 44 44 41 38 39 40 39 36 35 33 33 32 32 31 34 34 35 38 42 37 36 30 26 25 23 35 35 46 26 41 51 43
35 35 36 37 40 43 41 36 36 38 37 37 35 33 30 29 28 26 26 26 27 31 32 34 36 38 39 36 28 25 22 30 34 42 52 41 32 34
32 33 35 37 40 38 34 34 36 36 34 33 32 30 27 24 25 24 22 20 21 25 28 31 32 34 37 40 33 25 23 27 34 37 40 45 45 45
32 33 35 37 38 33 31 33 34 33 31 30 29 25 23 22 22 21 19 23 21 22 24 28 31 33 32 34 32 27 24 29 37 39 43 37 41 40
32 34 35 36 36 32 31 32 30 28 28 27 27 26 26 22 20 17 19 19 22 22 24 27 28 28 29 28 26 27 24 26 30 36 46 43 44 44
32 34 34 36 34 31 31 29 27 26 26 24 22 21 21 21 20 15 17 26 23 25 24 25 24 23 24 25 23 26 31 23 24 25 26 31 41 47
31 32 34 35 32 29 27 27 28 26 25 23 21 19 18 16 17 16 15 14 24 28 27 23 20 22 23 24 26 25 32 25 27 25 25 25 26 29
29 30 32 32 28 25 25 26 27 26 24 19 14 13 12 11 12 14 15 15 12 13 14 17 18 19 20 22 26 27 25 23 29 29 27 26 24 24
29 29 29 29 26 23 23 25 26 25 23 18 12 11 10 9 8 9 12 14 15 17 12 14 16 17 18 20 23 26 27 27 28 28 29 28 30 30
28 28 27 27 25 22 21 22 24 23 22 15 12 10 9 8 6 5 6 7 8 8 12 12 14 15 17 18 21 23 25 27 28 28 29 30 31 30
27 27 26 26 25 22 21 21 22 22 20 13 9 8 7 7 7 6 4 1 2 4 4 4 6 11 16 18 20 23 25 27 28 29 29 30 30 30
25 25 24 24 26 25 22 21 21 21 19 13 7 5 4 5 5 6 6 5 6 3 1 2 4 6 9 15 18 19 19 20 23 25 25 26 28 28
23 23 23 22 22 23 23 21 19 19 19 18 8 5 3 2 2 3 4 4 2 2 2 3 4 4 5 10 14 16 16 16 17 18 18 20 22 24
22 22 22 22 21 21 21 21 19 17 17 16 14 6 4 4 3 3 3 3 2 2 2 6 5 4 5 7 11 12 14 15 15 15 15 16 19 20
20 21 22 21 21 20 20 20 20 18 15 14 13 11 7 6 6 6 5 4 4 2 3 5 6 7 4 6 9 11 11 11 10 10 11 13 16 20
17 19 21 22 21 21 20 19 19 19 18 15 14 12 10 7 6 7 7 6 5 5 5 6 7 7 8 9 9 10 12 10 8 8 8 9 9 11
15 17 19 20 22 22 21 20 18 17 17 17 14 12 12 9 7 5 5 6 6 7 9 8 8 8 9 9 9 10 11 10 9 9 9 10 10 9
14 15 17 18 20 21 23 22 21 18 17 17 16 15 12 11 9 7 6 5 4 7 9 10 11 11 11 12 12 12 13 12 12 11 11 11 10 11
15 15 16 17 19 20 22 23 22 20 17 15 15 15 14 12 10 9 8 6 5 5 5 6 9 11 12 13 14 14 14 14 15 16 16 15 15 15

GFSNE_700_spd_024.txt.gz
Wind_Speed
30 30 31 31 29 28 28 28 32 40 45 40 38 34 36 38 41 41 40 38 41 40 40 41 37 33 31 32 37 42 47 52 55 56 56 55 54 47
28 31 33 30 31 31 28 30 32 35 45 40 38 35 35 37 38 39 39 38 38 40 40 42 42 38 33 31 32 34 39 45 51 55 56 57 53 52
30 33 36 38 36 35 34 34 33 34 39 45 39 36 37 39 39 38 38 36 33 35 39 41 41 42 37 34 32 31 31 36 44 50 55 55 53 51
32 34 38 39 39 37 38 40 42 42 44 42 39 40 39 38 38 38 36 34 29 24 29 38 40 41 40 35 33 30 27 27 34 43 50 52 52 52
33 36 37 37 36 36 38 41 44 41 38 39 39 38 37 35 33 32 28 26 27 26 34 39 38 38 41 39 34 30 27 24 24 34 40 45 44 49
32 33 34 34 34 37 38 40 39 36 36 37 37 36 32 28 25 24 23 21 19 18 23 29 32 35 35 39 37 32 28 23 20 32 33 38 43 45
31 31 32 33 34 36 37 36 33 33 35 35 34 32 28 23 23 23 24 22 20 22 22 25 23 21 24 33 37 35 30 25 23 27 32 39 41 41
29 29 32 34 34 34 34 31 30 31 30 31 31 31 28 23 24 23 20 20 20 15 15 21 19 23 19 24 26 31 31 28 22 24 34 49 50 38
27 30 31 32 33 33 32 28 26 26 29 29 30 26 25 21 22 24 20 17 18 19 20 21 23 23 23 22 28 25 26 28 23 22 32 41 45 40
28 30 30 30 31 32 29 25 25 27 27 26 27 26 24 20 19 20 19 18 19 22 23 25 21 21 22 27 25 22 24 24 24 22 27 33 38 41
27 29 28 28 29 30 27 25 25 26 26 26 24 20 16 15 16 17 18 18 13 13 18 19 23 23 23 23 22 21 25 27 24 29 28 28 38 39
26 27 27 26 27 28 26 25 24 25 26 24 18 15 13 11 13 13 12 14 13 10 10 16 15 13 16 17 19 22 24 27 23 26 25 28 28 35
25 24 25 25 25 26 24 22 23 24 24 22 15 12 10 9 9 9 11 13 14 16 14 17 12 11 13 12 11 21 27 23 22 24 24 27 25 25
23 23 23 24 23 23 24 21 21 22 22 20 12 10 8 7 7 7 8 9 10 11 13 15 13 13 14 15 14 14 25 31 29 27 29 30 29 27
21 22 22 22 22 22 22 22 20 20 21 19 11 8 6 5 4 6 6 7 5 3 1 3 5 9 11 14 15 16 19 26 31 31 31 30 29 30
20 20 21 21 21 22 22 23 21 19 19 18 11 7 5 4 2 4 5 5 5 4 4 2 3 5 7 11 17 17 18 17 24 27 28 28 29 30
18 19 20 20 21 21 21 21 21 20 18 18 17 9 6 5 4 2 1 2 1 2 4 5 6 5 6 8 13 16 16 18 19 22 22 24 26 27
16 17 18 18 19 20 20 19 19 19 19 17 16 14 8 7 7 6 7 7 6 6 2 5 0 1 2 4 10 10 13 16 18 18 20 22 24 25
14 15 17 17 18 19 20 20 19 18 18 17 15 14 13 9 8 9 8 8 7 5 6 6 8 7 2 1 4 13 9 9 13 15 17 19 21 23
14 14 15 16 18 19 20 21 20 18 17 17 16 14 13 12 9 7 7 8 8 7 7 9 9 11 8 15 8 10 14 13 10 10 11 13 15 18
16 15 15 15 16 18 19 21 21 20 18 16 15 15 13 12 11 9 6 6 7 8 9 10 10 11 13 12 9 10 12 13 11 10 12 12 12 11
17 16 16 16 16 16 18 20 21 21 20 17 15 14 14 12 11 10 8 6 5 6 8 10 11 12 12 13 13 12 13 13 12 11 11 12 13 14
19 19 18 17 17 17 18 19 20 21 20 19 16 14 14 13 12 10 9 7 5 5 5 8 11 12 14 14 14 14 14 14 15 15 15 15 14 14

GFSNE_700_spd_027.txt.gz
Wind_Speed
29 31 32 36 32 34 31 35 33 39 39 37 37 31 34 37 39 41 41 39 36 36 38 40 40 40 42 37 33 39 40 42 49 52 54 54 56 57
29 27 38 33 33 35 40 31 33 36 42 38 37 36 40 39 36 37 39 40 38 37 34 37 40 41 43 43 38 34 37 35 38 46 52 55 55 56
30 36 29 33 38 38 35 34 32 33 40 46 42 42 39 40 39 39 39 39 37 36 34 33 36 40 41 42 41 37 34 35 33 37 45 53 56 57
32 35 35 35 38 35 36 36 38 40 43 47 45 41 39 40 39 37 35 32 33 33 30 29 29 35 37 40 39 38 35 35 33 32 35 45 54 56
29 35 35 36 36 35 36 37 39 41 43 45 42 39 39 36 33 31 27 28 26 24 23 23 28 30 33 36 37 37 36 34 33 32 31 36 47 53
32 32 32 33 33 34 35 37 39 40 41 38 37 37 34 31 27 25 26 27 26 22 23 25 25 27 31 34 33 33 36 33 32 29 29 31 39 47
29 29 30 32 33 34 34 34 36 37 35 33 33 32 31 29 26 24 25 27 27 22 19 24 27 27 22 15 21 30 33 35 31 29 28 29 34 38
28 28 29 32 34 35 35 33 33 32 30 30 31 30 29 22 25 24 24 25 24 18 20 20 24 16 24 18 16 19 27 34 31 29 26 26 31 37
27 27 28 30 33 32 33 32 32 28 28 29 30 29 29 29 28 25 23 24 23 21 20 20 15 14 21 24 28 31 23 27 32 29 25 26 32 36
26 26 28 29 33 30 30 30 29 27 27 27 28 29 26 22 19 19 22 24 21 19 17 22 22 23 23 24 25 24 21 27 30 30 27 24 31 36
24 26 28 28 29 29 29 28 27 25 24 27 27 24 20 16 16 17 15 18 18 12 11 15 12 18 23 25 22 17 20 24 29 31 29 24 30 27
22 25 29 25 26 27 27 27 26 24 24 25 25 18 15 14 14 15 13 16 18 11 8 11 12 14 13 7 11 13 17 23 28 28 26 25 24 21
22 24 25 25 25 25 25 25 25 24 23 24 23 15 12 11 10 9 10 14 15 16 14 19 13 11 11 11 2 8 15 23 26 23 23 26 23 19
21 23 22 23 24 24 22 23 23 23 21 22 22 14 11 9 8 5 9 11 13 15 13 13 16 14 17 14 10 4 10 22 21 19 18 26 25 21
20 21 21 21 22 22 22 21 21 22 21 20 20 14 11 9 8 7 7 7 7 8 7 5 5 8 10 9 9 9 6 21 26 24 21 24 28 26
19 19 18 19 20 20 20 21 21 21 21 19 19 17 11 11 8 7 4 2 6 7 12 7 7 6 5 6 7 9 6 9 31 25 27 27 28 29
19 19 17 18 19 20 20 20 20 20 20 20 19 18 15 11 11 9 8 6 8 7 6 6 10 7 7 7 7 11 12 11 10 26 27 26 27 27
20 19 17 17 17 18 19 20 21 21 20 19 19 18 16 15 11 12 12 13 13 12 10 5 3 5 4 3 6 5 10 12 10 16 23 25 26 27
20 19 18 17 17 17 18 20 21 21 21 19 18 18 16 15 14 11 12 12 12 11 9 7 9 5 7 3 1 8 8 7 9 13 15 19 23 26
20 20 19 18 17 17 17 19 21 22 22 20 18 17 16 15 13 13 10 10 10 10 10 10 10 10 2 11 8 4 9 8 7 8 12 16 18 19
21 21 20 19 18 18 18 19 20 21 22 21 20 17 15 15 14 12 12 10 9 10 10 10 10 10 13 7 5 8 10 15 12 10 10 11 12 14
21 22 22 21 20 19 19 19 20 20 21 22 20 19 16 14 14 13 12 10 9 7 8 10 11 12 12 12 12 10 10 11 11 10 10 11 11 9
21 22 23 22 22 21 20 20 20 20 20 21 20 19 17 15 13 13 12 11 10 8 6 6 10 12 14 15 16 15 12 13 14 13 12 11 11 12

GFSNE_700_spd_030.txt.gz
Wind_Speed
25 28 33 34 28 32 40 34 36 42 51 40 41 38 38 43 45 44 44 41 39 40 38 36 35 35 37 39 40 38 37 38 40 41 47 53 55 57
27 30 32 28 30 36 35 38 41 44 47 43 41 43 44 46 44 42 39 38 39 39 39 37 37 35 37 38 39 38 36 38 37 39 40 45 53 55
28 32 25 28 36 37 40 41 41 40 43 44 43 45 46 45 42 38 37 39 38 37 36 35 35 36 34 37 38 39 36 37 39 37 37 38 45 53
25 24 30 38 42 40 39 37 36 37 41 46 45 44 44 43 38 37 35 33 33 33 32 32 30 31 31 32 33 34 35 36 39 39 36 36 39 47
26 26 30 34 37 34 34 34 36 38 40 43 44 42 41 37 35 34 32 31 28 28 27 27 25 25 24 27 32 29 29 32 35 40 36 34 34 38
28 30 31 31 31 32 32 34 36 38 39 39 39 37 35 32 32 32 31 25 26 26 27 28 25 25 25 24 25 28 32 32 34 36 36 34 32 31
28 30 29 31 31 31 32 34 34 35 35 36 35 33 32 32 30 28 27 26 23 24 26 23 22 21 28 27 25 24 19 23 28 34 34 33 31 29
29 28 29 29 31 33 34 34 33 34 34 34 32 32 30 30 32 31 31 32 30 20 25 22 22 21 23 16 16 15 20 16 26 30 33 33 31 27
29 27 27 27 29 30 31 31 31 31 33 33 32 31 32 31 31 27 24 23 22 23 25 25 21 21 15 12 16 20 24 20 22 26 32 31 29 24
27 27 26 27 28 30 30 29 29 29 29 28 28 29 29 27 24 21 19 19 15 16 16 19 10 19 23 19 18 20 27 30 29 23 29 29 28 24
26 26 25 26 27 27 28 28 28 27 27 27 26 27 27 21 19 18 15 15 16 15 14 13 10 16 14 21 24 24 24 22 24 26 26 28 28 25
24 23 24 24 25 26 28 28 27 27 27 24 22 23 21 17 15 14 14 14 17 19 13 16 14 13 11 12 7 9 11 14 18 22 24 25 27 20
23 21 24 23 23 25 26 27 26 26 25 26 23 22 18 14 12 11 9 11 16 19 15 19 17 16 15 15 8 4 5 10 13 18 21 22 22 15
21 20 21 22 21 23 24 24 25 25 23 23 22 21 19 13 11 10 11 12 11 19 10 11 12 11 18 16 13 2 3 5 8 11 16 17 17 13
21 19 20 21 20 20 22 22 22 22 22 21 22 20 20 15 12 10 9 8 7 10 8 7 10 9 9 9 10 12 3 3 14 14 11 18 21 18
21 20 19 19 18 18 19 20 22 23 23 22 21 21 19 18 14 13 10 10 12 13 13 8 10 14 9 4 6 10 7 5 13 18 14 16 28 25
20 19 19 19 18 18 18 19 20 21 23 23 21 20 20 18 16 14 14 13 14 14 13 11 9 9 7 6 6 7 10 9 4 11 16 19 20 26
23 21 19 19 18 18 18 18 19 20 22 24 23 21 19 19 17 16 14 14 14 15 14 11 7 5 5 9 2 6 5 12 13 10 12 17 18 20
22 21 21 20 19 18 18 18 18 20 21 23 23 22 19 18 18 16 15 12 11 12 11 11 9 8 6 6 4 5 4 7 7 9 11 15 16 19
20 20 20 20 19 19 18 19 19 19 20 22 23 23 21 18 17 16 15 13 11 10 10 10 8 8 8 2 5 1 6 3 4 5 9 11 14 17
19 19 19 20 20 19 18 19 19 19 19 20 21 21 21 19 16 16 15 14 12 10 8 8 8 8 8 6 3 5 3 9 11 5 7 8 11 13
19 20 19 20 20 20 19 20 19 19 19 19 20 21 20 19 17 15 15 14 12 10 8 6 7 8 10 10 7 3 4 6 9 9 7 6 6 7
21 20 19 20 21 22 21 21 21 20 19 19 19 19 19 19 17 15 14 14 13 11 9 6 6 9 12 13 12 15 10 9 8 10 10 9 9 10

GFSNE_700_spd_033.txt.gz
Wind_Speed
34 33 34 33 33 32 33 29 34 42 48 45 47 41 40 41 41 41 41 41 42 42 39 38 39 38 38 36 37 37 35 35 38 40 42 45 51 52
33 32 31 32 34 30 26 30 39 44 47 45 41 40 41 41 41 41 42 41 39 36 36 39 39 39 37 36 37 38 37 34 35 38 42 43 47 49
32 31 28 28 28 29 34 36 45 42 42 42 39 40 42 42 40 39 39 36 34 35 36 35 35 35 36 35 35 36 37 35 35 37 40 42 45 46
32 30 27 26 25 30 35 37 37 36 37 41 40 41 41 39 38 36 34 33 33 34 34 34 31 29 27 29 31 33 34 31 34 37 38 42 44 46
30 29 28 29 29 29 30 30 32 33 35 40 41 38 38 36 34 32 32 32 32 34 33 31 30 30 28 27 25 26 29 32 31 35 38 40 43 43
30 29 29 30 30 30 29 29 31 33 35 35 35 34 33 31 31 32 33 31 32 28 29 27 27 30 29 27 25 27 25 27 28 31 35 38 41 43
29 29 30 30 30 29 27 29 32 33 32 32 32 32 30 29 29 30 33 32 24 26 28 25 28 27 24 25 25 25 23 23 23 28 32 35 38 41
28 28 28 28 28 27 28 30 31 32 32 33 33 32 28 27 29 31 29 26 23 17 20 19 25 24 23 23 19 13 21 19 21 21 27 30 34 37
29 28 27 28 25 25 28 28 28 29 31 31 31 30 29 28 30 28 23 23 21 12 19 19 17 19 20 24 18 13 10 19 22 20 23 24 28 32
28 28 28 27 24 25 27 26 26 27 28 29 30 29 28 27 28 24 21 21 17 10 17 20 14 12 14 18 21 19 17 20 24 25 24 24 26 28
27 26 27 26 22 24 24 24 25 25 25 26 27 27 26 26 23 21 20 19 16 9 11 19 16 16 13 13 13 21 23 21 25 27 28 26 24 25
26 27 26 23 22 23 22 23 23 24 24 24 23 24 23 23 18 18 18 16 15 13 16 23 22 21 19 12 12 10 18 21 22 23 21 24 20 22
25 25 25 21 21 21 21 21 22 23 24 24 23 23 20 21 16 15 15 14 13 12 17 20 21 15 20 18 9 14 2 8 11 13 14 16 16 16
25 25 23 22 21 20 19 20 20 22 22 22 22 22 21 18 17 14 13 13 12 12 15 16 13 12 12 14 15 14 4 2 7 6 8 13 11 10
23 25 23 22 20 19 19 18 18 19 20 21 22 21 21 20 18 15 13 14 12 14 13 18 10 12 13 11 9 12 6 3 5 8 5 11 12 15
24 23 24 22 20 19 17 17 17 18 19 21 23 23 22 21 19 17 14 14 16 15 16 14 13 18 14 10 6 10 12 4 3 7 5 13 16 18
26 23 21 21 21 18 17 16 17 17 19 19 21 23 23 21 19 18 16 14 15 16 16 16 14 10 12 8 5 9 10 9 4 1 6 14 19 20
25 23 21 20 19 17 16 16 16 16 18 18 20 22 23 22 19 18 17 16 13 13 14 13 8 9 10 6 2 8 6 13 9 4 6 10 13 22
23 22 21 20 19 18 16 17 16 16 17 17 18 20 22 22 21 17 17 15 14 12 11 9 6 8 4 8 3 5 2 10 10 10 9 9 6 13
22 21 20 19 19 18 17 17 16 16 16 16 17 18 20 20 20 18 17 16 13 12 9 8 5 6 7 3 2 2 7 2 4 4 6 10 14 15
22 21 19 18 18 17 17 17 17 16 15 15 16 16 17 18 19 19 16 16 14 12 10 8 4 4 6 5 3 2 4 6 8 3 2 5 9 14
22 22 20 18 17 17 17 16 16 16 15 15 15 15 15 16 17 18 17 14 14 12 9 7 4 4 7 7 7 3 3 2 8 9 5 4 4 6
25 24 22 19 18 18 18 17 17 17 16 15 16 15 15 15 15 16 16 14 12 12 10 7 6 5 8 9 10 11 9 5 5 6 8 7 6 8

GFSNE_700_spd_036.txt.gz
Wind_Speed
37 37 36 35 35 34 34 34 35 36 38 36 41 48 47 40 40 41 42 43 44 45 44 44 44 41 38 36 36 37 38 37 34 32 41 47 48 48
36 35 35 34 32 30 29 30 31 36 44 43 48 49 42 42 42 43 44 45 43 42 41 39 37 37 36 37 38 37 38 38 38 33 35 43 47 51
37 35 34 33 30 28 26 29 35 38 41 44 42 40 41 43 43 42 41 39 38 36 34 33 34 36 35 37 37 37 38 38 39 38 35 38 44 49
35 34 33 34 31 27 27 29 32 33 35 38 38 38 41 41 40 38 36 35 33 32 33 33 34 34 36 37 35 34 35 38 40 40 39 39 43 46
37 35 34 32 30 29 30 30 29 29 32 35 38 39 38 37 36 34 32 29 29 32 33 34 33 33 32 32 33 33 33 33 35 36 40 39 42 44
37 35 34 32 32 31 30 28 29 30 32 35 36 35 35 32 33 32 29 28 28 28 30 29 29 31 31 31 31 31 32 32 34 31 33 39 39 44
36 35 34 33 31 31 29 28 29 30 32 33 34 33 32 31 30 29 29 29 22 25 26 24 26 25 25 28 28 28 27 28 29 28 28 31 33 40
34 34 33 32 30 29 28 27 28 31 32 33 33 33 32 31 30 28 28 28 21 19 24 18 20 20 22 24 25 26 21 18 24 28 29 29 32 35
34 34 34 31 29 27 26 25 26 29 32 33 32 30 30 30 28 27 27 24 21 19 23 20 17 19 18 18 21 22 21 21 19 24 23 23 24 29
34 34 32 30 28 26 24 23 24 27 28 30 30 28 29 28 27 27 25 19 17 16 18 22 18 19 17 15 17 18 19 23 19 21 24 21 23 25
33 32 30 28 27 24 23 22 22 24 25 27 27 28 28 28 27 28 23 19 15 8 10 18 19 22 19 17 18 19 18 22 25 23 24 23 23 27
32 30 28 27 26 24 22 21 21 21 22 23 25 26 25 25 25 26 23 19 15 5 10 14 19 23 21 14 16 17 21 17 21 27 30 31 27 25
29 28 27 26 24 24 22 21 20 19 20 21 23 24 24 24 24 23 23 21 16 11 12 15 22 17 18 20 13 15 19 17 14 15 18 18 18 17
27 27 26 26 24 24 22 20 19 19 19 20 21 22 23 22 22 21 21 21 19 15 11 14 19 18 20 20 18 13 15 6 7 11 12 11 14 17
27 26 25 25 26 24 22 20 19 18 18 18 19 20 22 23 23 20 20 20 18 19 19 19 20 19 22 22 18 14 12 8 7 10 10 8 15 17
27 27 26 24 25 24 22 21 20 18 18 17 18 19 21 23 24 22 19 18 17 18 21 21 19 20 17 18 15 11 10 7 7 8 5 9 14 19
28 26 24 23 24 24 22 21 21 18 17 17 18 19 19 22 23 22 19 19 18 16 15 18 18 18 14 13 15 9 9 12 5 6 1 8 8 13
29 25 23 23 23 22 21 20 21 18 17 17 17 18 18 20 21 22 20 19 17 16 13 10 10 10 10 14 12 6 6 10 11 3 7 3 12 11
29 24 24 23 22 21 19 19 20 18 18 17 16 16 17 18 20 20 19 17 17 15 14 9 8 7 7 8 6 4 3 5 11 7 2 5 3 11
28 23 25 23 22 21 19 18 19 18 18 17 16 15 15 16 18 18 18 17 15 15 12 10 6 5 6 4 1 2 4 4 5 5 6 6 9 3
26 22 24 23 23 21 19 18 18 18 18 17 16 15 15 16 17 17 16 17 15 14 12 9 5 4 6 6 2 2 3 3 4 1 2 5 14 11
27 22 28 27 24 22 19 18 18 18 18 17 16 16 15 15 16 15 15 15 14 13 12 9 6 5 6 6 7 5 5 3 8 9 6 4 5 9
24 20 22 23 25 23 21 19 17 17 18 18 17 17 16 15 16 14 13 13 13 12 11 10 7 4 5 8 10 8 9 7 4 5 7 6 4 6

GFSNE_700_spd_042.txt.gz
Wind_Speed
41 39 43 45 41 41 41 40 41 40 42 40 39 37 37 37 37 38 39 40 40 42 44 44 44 44 44 43 42 40 38 38 38 38 35 35 35 38
37 43 45 41 39 38 37 37 37 37 39 38 38 38 38 38 38 38 38 39 41 42 42 41 41 40 39 38 36 34 32 32 32 32 32 33 34 37
44 42 36 36 35 36 37 37 37 36 36 35 35 36 36 36 37 38 39 40 40 40 40 39 37 35 34 33 33 32 32 32 33 33 33 34 34 36
41 34 32 35 35 37 37 37 36 36 37 36 34 34 34 33 36 37 38 39 39 38 38 36 33 32 32 33 33 33 33 32 33 34 34 35 35 36
33 32 34 37 38 39 38 37 37 37 36 36 34 33 32 33 34 35 35 35 35 36 35 32 31 31 31 30 30 29 29 30 31 31 33 33 33 35
32 33 37 38 39 39 38 37 37 36 35 35 33 32 31 32 33 34 32 32 32 31 29 28 30 27 27 28 27 27 26 26 26 27 29 30 32 34
33 36 37 39 39 39 38 36 37 36 35 34 32 31 30 30 30 31 33 31 29 28 26 27 26 24 24 26 26 25 23 22 21 22 24 25 26 28
35 36 38 39 39 39 37 36 36 35 35 34 31 29 29 28 28 30 31 32 29 27 24 20 22 21 20 20 22 24 22 20 20 21 21 23 22 23
36 37 38 38 39 38 37 36 34 34 33 32 30 28 28 27 27 27 29 31 28 26 26 21 19 16 16 17 20 22 21 20 20 20 20 21 21 21
36 37 38 38 38 38 37 35 33 32 32 31 29 27 27 26 26 26 28 30 28 25 26 26 19 17 13 17 18 18 19 20 21 22 22 21 24 25
38 40 39 38 36 37 36 34 32 30 31 30 28 27 26 25 25 26 27 29 29 24 22 26 23 18 14 15 14 16 20 22 23 22 21 22 24 28
41 42 40 39 37 36 35 33 31 29 30 28 27 27 26 25 24 25 27 29 30 28 24 24 22 25 21 14 11 18 23 23 23 16 16 19 20 24
44 43 40 39 38 36 34 32 30 30 29 28 27 25 25 24 23 24 26 28 28 28 25 25 22 20 25 22 16 19 21 23 20 13 16 18 20 22
45 43 40 38 38 36 33 29 28 30 29 28 26 24 25 23 23 24 25 26 27 28 26 25 24 22 22 22 22 17 17 20 17 11 16 21 22 21
42 40 39 39 37 34 32 29 30 32 29 28 25 24 24 23 23 24 24 25 25 26 26 26 25 23 19 16 18 16 20 16 14 13 17 22 22 17
42 41 39 42 36 32 30 30 33 33 30 27 24 24 23 23 22 24 23 23 22 21 23 26 25 23 16 12 15 14 17 16 10 14 17 22 12 7
48 38 33 36 33 28 29 30 28 30 30 26 24 23 22 22 21 22 23 22 21 22 19 19 22 22 16 11 9 14 14 11 11 12 14 19 10 6
45 35 33 34 31 28 30 29 26 30 28 26 24 23 22 21 20 21 21 21 20 20 21 20 17 16 15 10 9 12 11 10 9 9 12 15 15 13
41 38 36 32 29 28 27 26 24 31 28 26 23 21 22 21 20 19 19 19 18 19 20 19 17 15 10 8 6 7 8 11 5 5 9 10 12 11
36 39 37 29 30 29 26 26 25 26 28 24 23 22 22 20 19 18 19 18 16 16 17 18 16 13 8 5 3 5 7 7 6 5 3 3 2 6
28 32 29 29 30 27 24 26 27 25 23 25 21 22 21 20 18 18 18 17 16 14 15 15 15 12 8 6 6 5 6 6 6 5 6 3 6 5
24 26 24 27 29 24 22 23 26 24 23 22 21 20 21 19 18 17 17 16 15 13 14 13 13 12 9 8 8 7 6 5 4 8 7 5 4 6
27 26 25 24 24 23 21 22 24 22 21 19 18 19 20 18 18 17 17 16 14 13 12 13 11 11 10 9 10 10 9 9 9 8 8 5 4 4

GFSNE_700_spd_045.txt.gz
Wind_Speed
42 38 36 40 40 37 34 34 36 39 39 40 38 40 40 40 39 38 38 38 37 37 38 40 41 43 43 43 42 41 40 40 39 39 39 39 38 39
43 39 39 40 36 32 33 33 36 38 38 37 38 38 37 37 38 38 37 36 36 37 39 40 41 40 39 38 37 36 35 34 33 33 32 32 32 34
39 39 37 36 32 32 34 35 36 36 39 37 38 35 35 35 36 36 35 35 36 36 38 39 39 38 36 35 34 32 30 30 30 31 31 31 32 33
37 35 34 32 32 34 36 36 36 37 39 39 36 36 34 34 35 34 34 34 34 36 38 39 38 35 33 31 29 28 28 28 29 30 32 33 35 36
33 34 30 32 34 36 36 36 37 39 38 38 36 36 33 34 33 32 31 31 32 33 36 37 35 32 30 28 28 26 25 25 26 27 29 31 33 34
33 30 31 34 35 36 37 37 38 38 37 37 37 34 33 33 32 31 30 29 29 31 33 35 33 30 27 25 25 22 22 22 23 23 24 26 28 31
30 31 33 34 36 36 37 38 38 37 37 37 36 34 32 32 31 30 29 28 27 29 31 33 30 28 26 24 22 20 20 21 21 21 21 22 23 24
31 32 33 35 36 37 37 38 38 36 35 36 34 32 32 31 30 29 28 28 28 29 30 31 28 24 23 20 17 15 18 20 19 20 21 21 21 22
33 34 34 36 38 38 38 39 39 36 35 35 33 31 32 30 29 28 27 27 27 28 30 32 29 24 22 19 17 16 17 17 17 18 20 20 19 21
36 36 37 38 39 38 38 39 37 37 34 34 33 30 30 29 28 27 27 27 26 27 30 32 29 25 21 18 19 18 18 20 22 22 20 22 23 22
38 39 39 40 39 39 39 39 37 35 33 33 31 30 29 28 27 27 26 27 25 26 28 32 27 25 21 17 20 18 19 21 23 23 22 21 21 22
42 42 41 41 41 40 39 38 36 31 33 31 29 29 29 28 26 26 26 26 26 26 29 31 28 26 23 15 19 21 23 23 25 25 21 17 17 18
46 46 44 42 41 38 35 34 34 31 31 28 28 28 28 28 26 25 25 25 25 25 28 30 28 24 23 24 17 17 20 22 23 23 17 15 16 20
50 49 45 42 39 37 35 34 31 31 30 27 27 27 27 27 26 25 24 24 24 25 26 28 28 25 24 22 16 11 16 17 23 19 14 16 20 25
52 50 45 41 39 39 36 33 30 28 32 33 32 28 27 28 25 24 23 22 22 24 26 26 27 25 22 18 14 9 10 14 16 13 12 17 24 24
49 47 44 42 35 36 29 30 27 28 28 31 29 28 26 26 25 23 21 20 20 22 24 25 25 24 20 13 12 7 13 15 9 11 13 20 22 10
51 46 40 42 37 31 27 27 26 27 31 27 26 28 26 25 23 22 20 19 19 20 21 21 21 21 18 10 7 9 12 12 12 8 9 17 20 10
45 44 42 39 35 27 26 26 27 27 31 30 29 29 25 24 22 20 19 18 18 19 20 19 18 16 16 10 6 7 9 10 9 6 9 13 16 16
40 38 37 35 36 33 31 28 28 25 26 28 30 27 24 23 21 19 18 17 16 17 19 18 16 15 12 8 5 5 8 10 5 6 7 8 9 13
34 31 27 26 26 28 28 25 24 24 24 28 27 25 24 22 20 18 18 16 16 15 16 16 15 14 10 6 6 5 5 4 6 6 7 6 4 6
29 26 22 23 21 23 21 20 22 22 22 26 25 22 23 21 18 18 18 16 15 14 14 14 14 12 10 7 7 8 8 7 5 5 8 8 7 9
23 23 19 13 17 19 20 21 20 21 21 24 22 22 22 21 18 18 16 15 14 13 13 12 12 11 10 9 8 8 9 8 6 6 8 7 6 6
22 20 21 26 19 19 20 20 20 21 20 20 20 21 20 20 17 17 15 14 14 13 12 12 10 10 9 9 8 9 10 10 11 10 8 8 5 5

GFSNE_700_spd_051.txt.gz
Wind_Speed
45 44 41 38 37 36 33 36 36 39 40 34 30 33 36 39 44 45 42 41 39 38 38 37 37 37 35 33 34 36 39 42 43 43 43 43 42 42
40 49 38 39 38 33 35 35 36 40 39 31 31 35 37 37 41 45 40 39 38 36 36 34 34 34 32 32 34 37 40 40 39 38 38 37 37 37
47 44 43 39 34 34 35 38 40 38 37 36 34 34 34 38 39 43 43 40 38 36 35 33 34 32 32 33 34 37 39 37 35 33 33 33 33 33
38 44 42 37 37 37 40 39 37 37 39 39 39 37 37 36 37 39 42 40 35 33 34 32 32 32 31 33 35 36 36 33 32 31 29 29 29 30
40 40 39 39 40 42 38 38 37 39 38 38 38 38 38 34 37 37 39 41 38 32 34 34 31 31 30 31 33 34 34 31 28 26 26 27 28 29
40 39 40 41 42 37 35 37 39 36 38 39 37 42 36 33 36 34 39 33 34 38 33 33 31 32 30 32 33 31 31 27 24 23 23 24 25 27
39 40 40 38 37 35 36 38 38 39 42 43 45 42 39 35 36 34 38 41 39 36 34 32 29 30 30 32 33 34 32 27 23 22 20 19 20 22
36 36 37 36 36 37 38 40 42 43 43 43 46 44 44 47 41 39 39 43 40 33 31 32 29 29 30 31 31 30 30 29 26 23 21 19 18 20
35 36 37 37 38 40 43 46 43 43 45 45 47 44 43 43 39 41 46 41 40 35 34 32 28 28 28 30 31 31 31 28 26 24 23 23 22 21
37 38 40 41 42 44 45 46 49 49 45 44 44 42 40 38 37 39 40 40 37 34 32 31 27 26 27 28 30 31 29 26 26 26 26 24 24 25
39 41 43 44 45 46 49 50 49 48 46 45 44 41 40 39 35 33 37 37 36 33 29 27 26 26 26 27 29 31 28 25 27 27 27 26 25 28
44 45 46 47 48 49 51 51 46 45 43 42 43 42 40 38 35 36 32 32 32 32 26 23 24 26 27 26 28 30 28 25 24 23 21 22 25 30
47 49 50 51 52 54 53 52 49 45 44 42 41 41 38 38 37 38 32 32 31 28 23 25 22 24 26 27 27 27 25 20 16 14 15 19 22 24
49 52 55 56 57 55 53 51 48 46 46 47 43 44 34 35 32 39 35 34 33 29 23 23 22 23 24 24 27 24 21 15 13 13 14 16 16 17
53 55 55 54 52 50 48 46 43 43 45 46 39 36 30 30 29 33 32 30 31 29 25 22 22 22 23 23 25 22 17 11 11 12 14 12 10 16
55 53 51 47 44 43 41 38 36 34 35 33 36 37 33 29 32 30 30 27 29 26 22 21 20 21 21 21 22 19 14 12 13 12 11 6 9 14
53 51 48 46 43 40 34 29 26 25 28 29 22 30 26 27 29 30 25 25 27 25 22 20 20 18 18 18 18 16 12 10 12 11 8 6 7 12
48 47 45 42 40 38 34 28 21 23 26 27 27 26 22 24 27 26 28 28 28 25 21 19 18 17 17 17 16 13 12 10 11 8 8 7 8 11
44 42 41 41 40 36 32 27 24 22 25 23 23 22 21 23 24 25 26 26 28 24 21 19 17 16 15 15 15 13 11 10 9 9 9 9 10 11
40 39 38 36 34 33 28 26 25 24 22 18 24 25 25 22 22 22 23 23 26 22 20 19 17 14 14 14 13 13 12 12 11 10 10 10 10 8
38 37 34 31 30 30 25 21 19 21 17 24 24 23 23 22 19 21 23 23 25 22 20 18 17 12 13 13 12 12 13 14 13 12 9 9 11 11
38 35 31 29 29 30 24 23 19 15 12 16 19 20 20 18 18 21 22 23 23 20 19 18 16 13 13 13 12 11 11 14 13 13 12 12 12 12
38 36 32 30 29 28 26 24 24 18 17 16 15 18 18 17 17 21 21 21 22 20 19 18 16 14 12 12 11 11 11 11 12 13 12 12 12 11